Wind_Speed
27 26 25 23 21 19 19 18 17 17 17 16 14 12 11 11 11 10 8 7 8 8 7 7 7 7 7 6 5 5 6 6 6 6 7 8 7 7 8 8 8 8
27 26 25 22 21 20 19 18 17 16 16 15 13 12 12 12 12 11 9 9 8 8 8 8 7 7 7 7 6 6 7 8 9 8 9 10 9 10 10 10 9 10
29 27 25 23 22 20 19 17 16 16 16 14 13 12 12 12 12 11 10 9 9 9 10 9 8 8 8 8 8 9 9 10 10 10 11 11 11 11 12 12 11 11
30 28 25 23 22 21 19 17 17 16 15 14 13 12 13 13 12 12 10 10 10 10 10 10 10 10 10 10 10 10 10 11 11 11 12 13 12 12 13 13 13 13
31 28 25 23 23 21 19 18 18 17 16 15 14 14 14 14 14 13 12 10 10 9 9 9 10 11 12 11 11 11 11 12 12 12 13 14 14 13 13 14 14 15
30 28 26 24 23 21 20 19 19 18 17 16 15 15 15 15 15 14 13 11 10 9 9 9 10 10 11 11 12 12 13 13 13 13 14 15 15 14 14 15 16 17
31 28 27 26 24 22 21 19 19 19 18 16 16 16 16 17 16 15 14 12 11 11 11 11 12 12 11 11 12 12 13 13 13 14 15 16 16 16 16 16 18 19
30 29 28 27 25 24 21 20 20 20 18 17 17 17 17 18 17 15 14 14 13 13 13 14 15 15 14 14 14 13 13 14 14 15 16 17 17 17 17 17 18 19
31 30 29 28 26 25 22 20 20 20 19 19 18 17 18 18 17 16 16 16 16 16 16 17 17 17 17 17 17 17 16 16 15 15 16 17 18 18 18 18 19 20
33 31 30 29 27 25 23 21 20 20 20 19 19 19 19 19 17 17 18 18 18 18 19 19 19 19 18 18 18 19 19 18 17 17 17 17 17 18 19 19 20 21
34 32 31 30 28 26 24 22 21 21 21 20 20 20 20 18 17 18 19 20 20 20 20 19 18 17 16 15 14 15 16 17 18 17 18 17 17 18 18 18 19 20
34 33 31 30 30 28 25 23 22 21 21 21 22 21 20 18 17 18 20 20 20 19 18 17 15 13 12 11 11 12 13 15 16 17 17 17 17 17 17 17 18 19
32 33 33 32 31 29 26 24 22 22 21 22 22 21 19 18 18 19 19 19 18 16 16 15 14 12 11 11 12 12 13 14 15 16 16 17 17 17 16 17 18 18
33 33 33 33 31 28 26 24 24 22 21 21 22 21 20 20 19 19 19 17 16 15 15 15 13 12 12 12 13 14 14 15 15 15 16 17 17 17 17 17 18 18
39 36 33 32 30 28 26 25 25 22 21 23 25 24 23 21 20 20 18 16 15 14 15 15 14 14 14 14 14 15 15 15 15 15 16 17 18 18 18 18 18 18
36 32 30 30 29 27 26 27 26 23 23 27 29 27 24 23 22 21 19 16 14 13 13 13 13 14 14 14 15 16 16 16 15 16 17 18 19 19 20 20 19 19
25 23 24 27 28 27 26 26 25 26 29 31 30 27 25 24 23 22 20 17 14 13 13 13 13 13 13 15 16 16 17 17 16 17 17 19 20 20 20 20 20 20
22 24 24 25 26 25 23 22 25 31 34 32 30 27 25 24 24 23 21 18 16 16 16 16 16 15 15 15 16 16 17 17 17 17 18 19 20 19 19 19 19 20
31 31 26 25 25 22 21 22 28 36 36 33 30 27 24 24 24 24 22 19 18 18 18 18 18 17 17 17 17 16 16 16 16 17 19 20 20 19 19 18 19 20
36 34 30 30 27 24 24 26 31 36 36 32 29 25 23 23 24 24 23 21 20 19 19 19 19 18 18 17 17 17 15 15 16 17 19 20 20 20 20 20 19 20
36 34 34 33 29 28 29 30 33 36 34 30 27 25 23 24 24 24 23 21 20 20 19 20 20 19 17 17 16 16 14 14 16 17 19 21 21 22 21 20 18 18
37 32 31 32 31 31 32 32 33 34 32 29 26 24 23 23 24 23 22 21 20 20 21 21 20 19 18 17 16 14 14 15 16 17 19 21 22 22 21 20 18 16
37 31 32 34 33 32 32 33 31 31 31 28 24 23 23 23 23 23 21 21 21 22 22 21 20 19 17 16 15 14 15 16 17 18 18 20 21 21 20 20 19 16
38 37 39 38 35 34 34 32 29 29 28 25 22 23 24 25 25 23 22 22 22 20 19 18 18 17 16 15 14 14 15 16 17 17 18 18 19 19 19 20 19 17
37 40 41 39 37 36 33 29 27 26 26 24 22 24 25 25 24 22 21 20 18 16 15 16 17 16 14 14 14 14 15 16 16 16 16 17 17 18 19 19 18 16
37 40 41 38 37 34 28 25 24 24 24 23 22 24 24 23 21 19 19 18 15 13 12 13 15 14 13 13 14 15 15 15 15 16 16 16 16 17 19 18 16 16
Wind_Direction
213 211 211 211 213 214 213 210 208 207 206 207 211 214 213 209 204 206 219 233 235 235 238 252 258 249 246 259 269 263 262 267 271 278 279 275 272 263 254 252 255 259
211 210 211 212 211 211 212 213 213 212 210 212 218 221 217 214 213 215 221 225 226 228 237 252 251 241 244 250 253 256 258 262 265 270 276 277 272 265 260 260 264 270
210 209 211 213 210 208 211 215 217 216 214 217 220 218 213 209 208 210 214 219 224 230 239 244 239 236 242 246 251 256 257 259 264 266 272 275 273 267 263 263 268 273
209 210 212 212 210 209 211 213 214 212 213 216 213 208 204 203 204 210 215 219 225 231 234 235 234 235 240 243 247 250 253 257 261 264 268 271 271 268 266 266 269 271
209 210 211 211 209 209 211 211 210 209 211 212 207 203 205 206 210 215 218 219 222 224 223 227 231 234 237 240 242 246 252 256 260 262 266 270 271 269 268 268 268 268
209 210 210 209 209 210 211 209 208 208 211 210 206 207 213 215 216 218 221 223 224 224 224 229 233 234 237 240 244 251 256 258 261 263 267 270 271 270 268 267 267 267
208 210 209 209 210 211 210 208 206 208 213 214 213 216 221 221 221 221 225 230 231 233 236 241 243 243 244 246 249 254 257 258 260 262 265 267 268 269 268 267 269 269
211 210 210 209 209 211 210 207 206 208 212 216 218 222 224 226 227 229 232 237 238 242 246 250 254 255 254 252 253 256 257 257 258 261 264 265 265 266 267 268 270 271
215 213 212 211 211 211 211 208 208 210 212 217 221 224 224 227 233 237 238 242 245 248 253 257 260 261 260 259 258 258 259 259 260 263 265 267 267 268 269 268 270 272
214 214 213 212 213 214 213 212 212 212 214 219 225 227 225 225 230 237 241 245 248 250 254 258 261 262 263 264 262 261 262 262 264 266 268 271 272 273 273 272 272 272
211 213 214 213 214 215 215 215 215 216 218 222 224 224 225 227 232 239 245 247 248 251 254 258 261 262 261 262 265 266 266 265 265 266 269 272 275 277 276 274 274 274
207 210 213 214 215 216 216 217 219 220 222 222 221 220 224 231 238 244 247 246 246 248 253 256 259 258 257 263 272 272 268 266 264 264 268 274 278 280 277 274 273 273
203 209 213 214 215 216 216 219 222 223 222 221 222 222 227 233 239 243 244 242 242 245 248 253 255 253 258 273 281 278 274 271 268 268 272 277 282 284 279 272 269 269
202 208 215 216 216 216 217 220 222 223 221 222 226 229 231 236 240 242 240 236 239 245 248 250 251 251 261 275 280 280 279 277 275 274 277 281 285 286 281 273 268 266
203 206 213 215 215 216 218 221 222 222 220 223 229 233 235 241 244 239 233 232 239 245 247 247 249 254 262 270 273 275 277 278 279 278 279 283 285 285 283 278 274 270
201 206 211 211 213 217 220 221 222 220 220 224 229 232 238 244 242 232 228 232 240 243 245 249 254 259 263 265 267 271 275 278 281 281 280 281 283 284 283 283 282 280
193 212 219 213 213 219 223 226 228 226 224 227 230 232 239 243 237 229 230 237 244 248 250 255 259 261 262 264 267 272 276 279 281 282 282 281 281 281 282 285 288 288
191 218 228 220 216 220 222 227 237 238 234 233 233 234 238 240 234 230 235 243 250 253 255 258 262 264 265 268 272 276 278 280 281 281 280 280 280 280 281 285 289 291
197 212 220 219 217 217 217 220 234 244 243 238 236 236 238 239 234 233 239 246 249 252 256 262 267 270 273 274 274 278 280 279 278 277 277 278 278 278 278 281 284 288
198 206 208 211 212 213 217 223 233 244 246 241 239 238 238 237 233 235 242 247 248 253 261 268 272 275 281 283 280 280 281 278 276 275 274 275 275 274 274 277 283 290
198 204 202 202 205 209 217 227 234 241 244 243 241 238 237 236 235 239 245 248 252 259 265 270 274 276 284 290 289 285 282 280 279 279 278 277 275 272 271 276 286 293
198 202 198 199 204 210 218 229 236 241 244 242 241 240 238 238 238 242 248 252 257 263 265 268 273 277 284 292 292 284 280 282 284 283 284 281 275 271 270 278 289 292
193 192 193 200 208 214 221 231 239 243 242 239 239 240 238 237 239 244 250 255 260 263 264 269 275 281 287 289 284 278 279 283 284 284 284 280 275 271 272 280 289 289
190 189 193 200 210 218 223 231 240 244 241 239 240 240 238 238 241 245 251 256 259 263 267 273 279 284 285 283 279 278 280 281 281 281 279 275 272 272 274 280 285 284
192 191 196 200 209 219 225 231 240 245 243 241 241 240 240 240 242 245 249 251 254 262 269 274 278 281 283 283 282 280 279 279 278 274 269 266 269 272 275 280 283 283
194 193 198 203 211 219 227 233 242 245 243 241 241 239 239 240 238 238 239 238 242 254 264 269 275 281 282 280 278 275 274 274 269 263 259 262 268 273 277 283 288 290
Height
802 804 805 807 808 809 810 811 812 813 813 814 815 816 817 818 818 819 819 819 820 820 820 821 821 821 821 821 821 821 821 821 822 822 821 821 821 820 820 820 819 819
800 802 804 805 806 807 809 810 811 812 813 814 814 815 816 817 817 817 818 818 818 819 819 819 820 820 820 820 820 820 820 820 821 821 820 820 820 819 819 819 819 819
798 800 802 803 804 806 807 809 810 811 812 813 814 815 815 816 816 816 817 817 817 817 817 818 818 818 819 819 819 819 819 819 819 819 819 819 818 818 818 818 818 817
796 798 799 801 803 804 806 807 809 810 811 812 812 814 814 815 816 815 815 815 815 816 816 816 816 817 817 818 817 817 817 817 817 818 818 817 817 817 817 817 817 816
794 796 798 800 801 803 804 805 807 808 809 811 811 812 813 813 814 814 814 814 814 814 814 815 815 815 816 816 816 816 816 816 816 816 816 816 816 816 816 815 815 815
793 795 797 799 800 801 802 803 805 807 808 810 810 811 812 812 812 812 812 813 813 813 813 813 814 814 814 815 814 814 814 814 814 814 814 814 814 814 814 814 813 813
792 794 795 797 798 799 801 802 804 806 807 809 810 810 811 811 811 811 811 811 812 812 812 812 812 813 813 813 813 813 813 813 813 813 813 812 813 813 813 813 812 812
792 793 794 795 796 798 799 800 802 804 805 807 808 808 809 810 810 810 810 810 810 810 810 810 811 811 811 811 811 811 811 811 811 811 811 811 811 811 811 811 811 810
790 791 792 793 795 796 798 799 800 801 803 804 805 805 806 807 808 808 808 808 808 808 808 808 809 809 809 809 809 809 809 809 809 809 809 809 809 809 809 809 809 808
786 788 790 792 793 795 796 797 798 799 800 801 802 803 803 804 805 806 807 806 806 806 806 806 807 807 807 807 807 807 807 807 807 807 807 807 807 806 806 807 806 806
782 785 787 789 791 793 794 795 797 798 799 799 800 801 802 802 803 803 804 804 803 803 804 804 804 805 805 805 805 805 805 805 805 805 805 804 804 804 804 804 804 804
778 781 784 786 788 789 791 794 795 795 796 797 797 798 799 800 800 801 801 801 801 801 802 802 803 803 803 803 803 804 804 804 803 803 802 802 801 801 801 802 802 802
775 778 780 781 784 787 789 791 792 793 794 795 796 796 797 797 798 799 799 799 799 800 800 801 801 801 801 801 802 802 802 802 801 800 800 799 799 798 799 799 799 799
770 772 775 778 781 784 787 789 790 791 792 794 795 795 795 796 796 797 798 798 798 799 799 799 799 799 799 800 800 800 800 800 799 798 797 797 796 796 796 796 796 796
762 764 770 776 780 782 785 787 788 790 791 792 793 792 793 794 795 796 797 797 798 798 798 798 798 797 797 798 798 798 799 798 797 796 795 795 794 794 794 794 794 794
762 767 770 774 778 781 783 785 787 789 790 790 789 789 790 792 794 795 796 796 796 796 796 795 795 795 795 795 796 796 796 796 795 794 793 793 793 792 792 791 791 791
772 778 777 776 778 780 782 785 788 789 786 786 787 787 788 790 792 794 794 795 794 794 793 793 792 792 792 792 793 793 793 793 792 792 791 791 791 790 790 789 789 789
780 783 781 780 779 780 783 785 789 788 785 784 784 785 786 788 790 792 792 792 792 791 790 790 789 789 789 790 790 790 790 790 789 789 789 789 789 788 787 787 786 786
773 775 777 779 778 778 781 781 784 785 784 783 783 783 785 786 788 789 790 790 789 788 788 787 786 787 787 787 787 787 787 787 786 787 787 786 786 785 785 785 784 784
762 764 766 769 771 775 777 777 778 780 780 781 781 781 782 784 785 786 786 787 786 786 785 785 784 784 784 784 784 783 784 784 784 784 784 784 783 783 783 782 782 782
754 756 757 761 766 771 773 773 774 775 776 778 778 778 779 781 782 783 783 784 783 783 783 782 782 783 782 781 781 781 782 782 782 782 782 781 781 780 780 780 780 780
749 755 759 762 766 768 769 770 770 771 773 775 775 775 777 779 780 781 781 781 781 781 780 780 780 780 780 779 779 779 780 780 780 779 779 778 778 778 778 778 778 778
746 753 757 761 764 765 766 767 767 769 771 771 772 773 775 776 777 778 778 778 778 778 778 778 778 778 778 777 777 778 778 778 778 777 776 776 776 776 776 776 776 775
743 747 750 755 760 762 762 763 765 768 769 768 769 771 772 773 774 774 775 776 776 776 777 777 776 776 776 776 776 776 776 776 776 775 774 774 774 774 774 774 774 773
742 743 747 750 755 757 759 760 762 765 766 765 766 768 769 770 771 771 772 773 774 775 775 775 775 774 774 774 774 774 774 774 774 773 772 772 772 772 772 772 772 772
743 742 745 747 751 754 757 758 760 762 763 763 764 766 767 768 768 768 769 770 771 771 771 772 772 772 772 773 772 772 772 772 772 771 771 770 770 770 770 770 770 770